This demonstration page uses our WeatherBlox Daily Observations layout. Learn more.

39.51506, -84.39828

Hourly Observations for September 18, 2019

Temp ( °F °C ) Dew Point ( °F °C ) Humidity (%) Winds ( mph kmh ) Pressure ( in mb ) Visibility ( mi km ) Precip ( " mm )
12:15 am 00:15 Clear 65 18.4 60 15.5 83 83 NNE 6 9 30.09 1019 10 16.09344 N/A
12:35 am 00:35 Clear 65 18.4 60 15.6 84 84 NNE 5 7 30.09 1019 10 16.09344 N/A
12:55 am 00:55 Clear 64 18 60 15.8 87 87 NNW 5 7 30.09 1019 10 16.09344 N/A
1:15 am 01:15 Clear 64 18 61 15.9 88 88 N 5 7 30.12 1020 10 16.09344 N/A
1:35 am 01:35 Clear 64 17.5 60 15.7 89 89 N 5 7 30.12 1020 10 16.09344 N/A
1:55 am 01:55 Clear 63 17.2 60 15.8 92 92 N 5 7 30.12 1020 10 16.09344 N/A
2:15 am 02:15 Clear 63 17.2 61 16 93 93 NNW 5 7 30.12 1020 10 16.09344 N/A
2:35 am 02:35 Clear 64 17.5 61 16.1 92 92 N 6 9 30.12 1020 10 16.09344 N/A
2:55 am 02:55 Clear 63 17.2 61 16 93 93 N 5 7 30.09 1019 10 16.09344 N/A
3:15 am 03:15 Clear 62 16.9 61 15.9 94 94 N 5 7 30.09 1019 10 16.09344 N/A
3:35 am 03:35 Clear 62 16.9 61 15.9 94 94 N 7 11 30.09 1019 10 16.09344 N/A
3:55 am 03:55 Clear 62 16.7 60 15.8 94 94 N 6 9 30.09 1019 10 16.09344 N/A
9:55 am 09:55 Sunny 71 21.6 60 15.8 70 70 NNE 6 9 30.09 1019 10 16.09344 N/A
10:15 am 10:15 Sunny 73 22.6 60 15.6 65 65 NE 7 11 30.12 1020 10 16.09344 N/A
10:35 am 10:35 Sunny 74 23.6 60 15.7 61 61 NE 6 9 30.12 1020 10 16.09344 N/A
10:55 am 10:55 Sunny 76 24.5 60 15.8 58 58 E 6 9 30.12 1020 10 16.09344 N/A
11:15 am 11:15 Sunny 78 25.5 61 15.9 55 55 E 7 11 30.12 1020 10 16.09344 N/A
11:35 am 11:35 Sunny 80 26.4 60 15.5 51 51 ENE 13 20 30.12 1020 10 16.09344 N/A
11:55 am 11:55 Sunny 81 27 58 14.6 47 47 E 13 20 30.12 1020 10 16.09344 N/A
12:15 pm 12:15 Sunny 82 27.6 58 14.7 45 45 E 12 19 30.09 1019 10 16.09344 N/A
12:35 pm 12:35 Sunny 82 28 59 14.9 45 45 ENE 16 26 30.12 1020 10 16.09344 N/A
12:55 pm 12:55 Sunny 83 28.6 58 14.6 42 42 E 13 20 30.09 1019 10 16.09344 N/A
1:15 pm 13:15 Sunny 84 28.8 56 13.6 39 39 ESE 12 19 30.12 1020 10 16.09344 N/A
1:35 pm 13:35 Sunny 84 29.1 57 14 40 40 E 10 17 30.06 1018 10 16.09344 N/A
1:55 pm 13:55 Sunny 85 29.5 57 14 39 39 E 10 17 30.06 1018 10 16.09344 N/A
2:15 pm 14:15 Sunny 84 29.1 56 13.4 38 38 NE 10 17 30.06 1018 10 16.09344 N/A
2:35 pm 14:35 Sunny 86 30 56 13.5 36 36 NE 13 20 30.06 1018 10 16.09344 N/A
2:55 pm 14:55 Sunny 85 29.5 54 12.3 35 35 ENE 9 15 30.06 1018 10 16.09344 N/A
3:15 pm 15:15 Sunny 86 29.9 55 12.9 35 35 NE 8 13 30.06 1018 10 16.09344 N/A
3:35 pm 15:35 Sunny 85 29.7 54 12.4 34 34 NE 9 15 30.06 1018 10 16.09344 N/A
3:55 pm 15:55 Sunny 87 30.6 55 12.9 34 34 ENE 12 19 30.03 1017 10 16.09344 N/A
4:15 pm 16:15 Sunny 86 30.1 53 11.7 32 32 ENE 13 20 30.03 1017 10 16.09344 N/A
4:35 pm 16:35 Sunny 87 30.4 53 11.8 32 32 ENE 8 13 30.03 1017 10 16.09344 N/A
4:55 pm 16:55 Sunny 86 30.1 52 11.2 31 31 NE 8 13 30.03 1017 10 16.09344 N/A
5:15 pm 17:15 Sunny 87 30.3 51 10.3 29 29 E 9 15 30.03 1017 10 16.09344 N/A
5:35 pm 17:35 Sunny 86 29.8 52 11 31 31 ENE 12 19 30.03 1017 10 16.09344 N/A
5:55 pm 17:55 Sunny 85 29.6 52 10.9 31 31 E 10 17 30.03 1017 10 16.09344 N/A
6:15 pm 18:15 Sunny 85 29.3 51 10.8 32 32 E 7 11 30.03 1017 10 16.09344 N/A
6:35 pm 18:35 Sunny 84 28.8 51 10.3 32 32 E 8 13 30.03 1017 10 16.09344 N/A
6:55 pm 18:55 Sunny 83 28.3 49 9.4 31 31 E 8 13 30.06 1018 10 16.09344 N/A
7:15 pm 19:15 Sunny 81 27.2 49 9.6 33 33 E 8 13 30.06 1018 10 16.09344 N/A
7:35 pm 19:35 Sunny 78 25.4 50 9.9 38 38 E 6 9 30.06 1018 10 16.09344 N/A
7:55 pm 19:55 Clear 74 23.6 51 10.3 43 43 ENE 5 7 30.06 1018 10 16.09344 N/A
8:15 pm 20:15 Clear 71 21.9 55 13 57 57 ENE 5 7 30.06 1018 10 16.09344 N/A
8:35 pm 20:35 Clear 69 20.3 56 13.1 63 63 NNE 5 7 30.06 1018 10 16.09344 N/A
8:55 pm 20:55 Clear 70 21 54 12.2 57 57 NE 5 7 30.06 1018 10 16.09344 N/A
9:15 pm 21:15 Clear 70 21.2 54 12.1 56 56 E 6 9 30.06 1018 10 16.09344 N/A
9:35 pm 21:35 Clear 72 22 52 11 50 50 E 8 13 30.09 1019 10 16.09344 N/A
9:55 pm 21:55 Clear 72 22.1 52 10.9 49 49 NE 7 11 30.09 1019 10 16.09344 N/A
10:15 pm 22:15 Clear 71 21.4 52 10.9 51 51 NE 7 11 30.09 1019 10 16.09344 N/A
10:35 pm 22:35 Clear 68 20.2 53 11.7 58 58 NNE 5 7 30.09 1019 10 16.09344 N/A
10:55 pm 22:55 Clear 66 19.1 53 11.6 62 62 NNE 3 6 30.09 1019 10 16.09344 N/A
11:15 pm 23:15 Clear 65 18.2 54 12 67 67 Calm 30.09 1019 10 16.09344 N/A
11:35 pm 23:35 Clear 65 18.3 54 12.2 68 68 Calm 30.09 1019 10 16.09344 N/A
11:55 pm 23:55 Clear 65 18.6 53 11.4 63 63 NNE 3 6 30.09 1019 10 16.09344 N/A

Powered by AerisWeather